Weather History for KIPJ - January, 2014

Change the Weather History Date:

Monday, January 13, 2014

  Actual Average (KCLT) Record (KCLT)
Temperature  
Mean Temperature 42 °F 40 °F  
Max Temperature 56 °F 50 °F 75 °F (1960)
Min Temperature 27 °F 29 °F 3 °F (1895)
Degree Days  
Heating Degree Days 24 25  
Month to date heating degree days 325  
Since 1 July heating degree days 1662  
Cooling Degree Days 0 0  
Month to date cooling degree days 0  
Year to date cooling degree days 0  
Moisture  
Dew Point 33 °F    
Average Humidity 73    
Maximum Humidity 99    
Minimum Humidity 40    
Precipitation  
Precipitation 0.04 in 0.12 in 1.68 in (1948)
Month to date precipitation 1.47  
Year to date precipitation 1.47  
Snow  
Snow 0.00 in 0.10 in 4.70 in (1912)
Month to date snowfall 0.8  
Since 1 July snowfall 1.2  
Snow Depth -    
Sea Level Pressure  
Sea Level Pressure 30.06 in    
Wind  
Wind Speed 2 mph (SW)    
Max Wind Speed 15 mph    
Max Gust Speed 23 mph    
Visibility 10 miles    
Events Rain    
T = Trace of Precipitation, MM = Missing Value Source: NWS Daily Summary

Daily Weather History Graph

Daily Weather History Graph

Search for Another Location

Airport or City:

Trip Planner

Search our weather history database for the weather conditions in past years. The results will help you decide how hot, cold, wet, or windy it might be!

Date:

Astronomy

Jan. 13, 2014 Rise Set
Actual Time 7:33 AM EST 5:33 PM EST
Civil Twilight 7:05 AM EST 6:01 PM EST
Nautical Twilight 6:34 AM EST 6:32 PM EST
Astronomical Twilight 6:03 AM EST 7:03 PM EST
Moon 3:46 PM EST (1/13) 5:22 AM EST (1/13)
Length of Visible Light 10h 55m
Length of Day
9h 59m
Waxing Gibbous, 95% of the Moon is Illuminated
Jan 13
Waxing Gibbous
Jan 15
Full
Jan 24
Last Quarter
Jan 30
New
Feb 6
First Quarter

Hourly Weather History & Observations

Time (EST) Temp. Windchill Dew Point Humidity Pressure Visibility Wind Dir Wind Speed Gust Speed Precip Events Conditions
12:15 AM 31.6 °F - 30.9 °F 97% 30.14 in 10.0 mi Calm Calm - N/A   Clear
12:35 AM 30.7 °F - 30.0 °F 97% 30.14 in 10.0 mi Calm Calm - N/A   Clear
12:55 AM 30.2 °F - 29.3 °F 96% 30.13 in 10.0 mi Calm Calm - N/A   Clear
1:15 AM 30.0 °F - 29.5 °F 98% 30.14 in 10.0 mi Calm Calm - N/A   Clear
1:35 AM 30.2 °F - 29.7 °F 98% 30.13 in 10.0 mi Calm Calm - N/A   Clear
1:55 AM 29.8 °F - 29.3 °F 98% 30.14 in 10.0 mi Calm Calm - N/A   Clear
2:15 AM 29.7 °F - 29.1 °F 98% 30.14 in 10.0 mi Calm Calm - N/A   Clear
2:35 AM 29.7 °F - 29.1 °F 98% 30.14 in 10.0 mi Calm Calm - N/A   Clear
2:55 AM 29.3 °F - 28.9 °F 99% 30.14 in 10.0 mi Calm Calm - N/A   Clear
3:15 AM 29.3 °F - 28.9 °F 99% 30.13 in 10.0 mi Calm Calm - N/A   Clear
3:35 AM 28.4 °F - 28.0 °F 99% 30.13 in 10.0 mi Calm Calm - N/A   Clear
3:55 AM 29.1 °F - 28.4 °F 97% 30.13 in 10.0 mi Calm Calm - N/A   Clear
4:15 AM 28.2 °F - 27.7 °F 98% 30.12 in 10.0 mi Calm Calm - N/A   Clear
4:35 AM 28.4 °F - 28.2 °F 99% 30.13 in 10.0 mi Calm Calm - N/A   Clear
4:55 AM 29.1 °F - 28.6 °F 98% 30.13 in 10.0 mi Calm Calm - N/A   Clear
5:15 AM 28.2 °F - 27.9 °F 99% 30.13 in 10.0 mi Calm Calm - N/A   Clear
5:35 AM 28.4 °F - 27.9 °F 98% 30.13 in 10.0 mi Calm Calm - N/A   Clear
5:55 AM 28.2 °F - 27.5 °F 97% 30.13 in 10.0 mi Calm Calm - N/A   Clear
6:15 AM 28.2 °F - 27.7 °F 98% 30.13 in 10.0 mi Calm Calm - N/A   Clear
6:35 AM 28.4 °F - 27.7 °F 97% 30.12 in 10.0 mi Calm Calm - N/A   Clear
6:55 AM 28.2 °F - 27.5 °F 97% 30.11 in 10.0 mi Calm Calm - N/A   Clear
7:15 AM 28.0 °F - 27.1 °F 96% 30.11 in 10.0 mi Calm Calm - N/A   Clear
7:35 AM 28.0 °F - 27.3 °F 97% 30.11 in 10.0 mi Calm Calm - N/A   Clear
7:55 AM 27.3 °F - 26.8 °F 98% 30.11 in 10.0 mi Calm Calm - N/A   Clear
8:15 AM 28.4 °F - 28.0 °F 99% 30.10 in 10.0 mi Calm Calm - N/A   Clear
8:35 AM 30.0 °F - 29.5 °F 98% 30.10 in 10.0 mi Calm Calm - N/A   Clear
8:55 AM 33.6 °F - 32.7 °F 96% 30.11 in 10.0 mi Calm Calm - N/A   Clear
9:15 AM 40.6 °F 38.6 °F 34.7 °F 79% 30.12 in 10.0 mi SW 3.5 mph - N/A   Clear
9:35 AM 43.2 °F 40.5 °F 34.5 °F 72% 30.12 in 10.0 mi SW 4.6 mph - N/A   Clear
9:55 AM 45.9 °F 42.9 °F 34.7 °F 65% 30.12 in 10.0 mi SW 5.8 mph - N/A   Clear
10:15 AM 48.2 °F - 34.5 °F 59% 30.12 in 10.0 mi SW 5.8 mph - N/A   Clear
10:35 AM 50.7 °F - 34.9 °F 55% 30.12 in 10.0 mi WSW 6.9 mph - N/A   Clear
10:55 AM 51.4 °F - 34.3 °F 52% 30.11 in 10.0 mi WSW 4.6 mph - N/A   Clear
11:15 AM 54.5 °F - 34.9 °F 48% 30.10 in 10.0 mi SW 9.2 mph - N/A   Clear
11:35 AM 56.1 °F - 33.6 °F 43% 30.09 in 10.0 mi SW 11.5 mph 18.4 mph N/A   Clear
11:55 AM 55.2 °F - 32.0 °F 41% 30.09 in 10.0 mi SW 13.8 mph 23.0 mph N/A   Clear
12:15 PM 54.5 °F - 32.2 °F 43% 30.09 in 10.0 mi SW 11.5 mph 20.7 mph N/A   Clear
12:35 PM 55.6 °F - 32.7 °F 42% 30.05 in 10.0 mi SW 4.6 mph - N/A   Clear
12:55 PM 55.9 °F - 32.2 °F 41% 30.05 in 10.0 mi WSW 15.0 mph 19.6 mph N/A   Clear
1:15 PM 55.2 °F - 32.0 °F 41% 30.04 in 10.0 mi SW 6.9 mph - N/A   Clear
1:35 PM 56.3 °F - 32.0 °F 40% 30.04 in 10.0 mi SW 10.4 mph - N/A   Clear
1:55 PM 55.8 °F - 32.2 °F 41% 30.02 in 10.0 mi SW 10.4 mph - N/A   Clear
2:15 PM 56.1 °F - 32.0 °F 40% 30.01 in 10.0 mi WSW 8.1 mph 16.1 mph N/A   Clear
2:35 PM 55.9 °F - 32.5 °F 41% 30.02 in 10.0 mi SSW 6.9 mph - N/A   Clear
2:55 PM 55.4 °F - 31.8 °F 41% 30.02 in 10.0 mi SW 8.1 mph - N/A   Clear
3:15 PM 55.4 °F - 32.2 °F 41% 30.01 in 10.0 mi SW 4.6 mph - N/A   Clear
3:35 PM 55.0 °F - 32.0 °F 42% 30.01 in 10.0 mi SW 4.6 mph - N/A   Clear
3:55 PM 54.5 °F - 32.5 °F 43% 30.01 in 10.0 mi SSW 4.6 mph - N/A   Clear
4:15 PM 54.1 °F - 32.0 °F 43% 30.01 in 10.0 mi SW 4.6 mph - N/A   Clear
4:35 PM 53.8 °F - 32.0 °F 44% 30.01 in 10.0 mi SSW 5.8 mph - N/A   Clear
4:55 PM 53.6 °F - 32.0 °F 44% 30.00 in 10.0 mi SW 3.5 mph - N/A   Clear
5:15 PM 52.7 °F - 32.4 °F 46% 30.00 in 10.0 mi SW 3.5 mph - N/A   Clear
5:35 PM 52.2 °F - 32.5 °F 47% 29.99 in 10.0 mi Calm Calm - N/A   Clear
5:55 PM 51.4 °F - 32.9 °F 49% 29.99 in 10.0 mi Calm Calm - N/A   Clear
6:15 PM 51.4 °F - 32.9 °F 49% 30.00 in 10.0 mi Calm Calm - N/A   Clear
6:35 PM 48.7 °F - 34.0 °F 57% 29.98 in 10.0 mi Calm Calm - N/A   Clear
6:55 PM 48.2 °F - 34.5 °F 59% 29.99 in 10.0 mi Calm Calm - N/A   Clear
7:15 PM 47.8 °F - 34.7 °F 60% 29.99 in 10.0 mi Calm Calm - N/A   Clear
7:35 PM 46.6 °F - 35.6 °F 66% 29.98 in 10.0 mi Calm Calm - N/A   Mostly Cloudy
7:55 PM 48.0 °F - 35.6 °F 62% 29.98 in 10.0 mi Calm Calm - N/A   Overcast
8:15 PM 45.9 °F - 37.8 °F 73% 29.98 in 10.0 mi Calm Calm - N/A   Light Drizzle
8:35 PM 46.8 °F - 36.5 °F 67% 29.98 in 10.0 mi Calm Calm - N/A Rain Light Rain
8:55 PM 47.7 °F - 39.0 °F 72% 29.99 in 10.0 mi Calm Calm - N/A Rain Light Rain
9:15 PM 45.9 °F - 40.6 °F 82% 29.99 in 10.0 mi Calm Calm - N/A Rain Light Rain
9:35 PM 47.3 °F - 40.1 °F 76% 30.00 in 10.0 mi WSW 6.9 mph - N/A Rain Light Rain
9:55 PM 46.9 °F - 40.3 °F 78% 29.98 in 10.0 mi WSW 4.6 mph - 0.01 in Rain Light Rain
10:15 PM 46.4 °F 43.5 °F 41.2 °F 82% 29.97 in 10.0 mi WSW 5.8 mph - 0.02 in Rain Light Rain
10:35 PM 45.9 °F 42.9 °F 42.1 °F 87% 29.97 in 10.0 mi WSW 5.8 mph - 0.02 in Rain Light Rain
10:55 PM 45.7 °F 41.0 °F 42.3 °F 88% 29.98 in 10.0 mi West 9.2 mph - 0.03 in Rain Light Rain
11:15 PM 45.9 °F 41.7 °F 42.1 °F 87% 29.97 in 10.0 mi West 8.1 mph - N/A Rain Rain
11:35 PM 45.5 °F 42.5 °F 42.6 °F 90% 29.96 in 10.0 mi WSW 5.8 mph - N/A   Light Drizzle
11:55 PM 45.5 °F 44.2 °F 42.8 °F 90% 29.94 in 10.0 mi WSW 3.5 mph - N/A   Overcast